When you browse on this site, cookies collect data to enhance your experience and personalize the content and advertising you see.
Visit our Privacy Policy to learn more. By continuing to use the site, you agree to this use of cookies and data.
  • In France
  • List of Countries
  • For 7 days
  • Water Temperature
  • Satellite Maps
  • Weather Map
  • Weather Widgets
  • user-avatar
    Login

    Hourly Weather Farim

    Today, 22 July, Monday

    Time Temperature Precipitation Wind Pressure Humidity
    00:00 +26°C° 0.3 mm 1 mps 759 mmHg 94%
    01:00 +26°C° 0.3 mm 1 mps 758 mmHg 95%
    02:00 +26°C° 0.3 mm 1 mps 758 mmHg 96%
    03:00 +26°C° 0 mm 1 mps 758 mmHg 96%
    04:00 +26°C° 0 mm 1 mps 758 mmHg 96%
    05:00 +26°C° 0 mm 1 mps 758 mmHg 96%
    06:00 +26°C° 0 mm 1 mps 759 mmHg 92%
    07:00 +27°C° 0 mm 2 mps 759 mmHg 89%
    08:00 +28°C° 0 mm 2 mps 759 mmHg 85%
    09:00 +29°C° 0.1 mm 2 mps 759 mmHg 79%
    10:00 +31°C° 0.1 mm 1 mps 759 mmHg 73%
    11:00 +32°C° 0.1 mm 1 mps 759 mmHg 66%
    12:00 +31°C° 0.2 mm 2 mps 758 mmHg 70%
    13:00 +31°C° 0.2 mm 2 mps 758 mmHg 74%
    14:00 +30°C° 0.2 mm 3 mps 757 mmHg 77%
    15:00 +30°C° 0 mm 2 mps 756 mmHg 76%
    16:00 +31°C° 0 mm 2 mps 756 mmHg 75%
    17:00 +31°C° 0 mm 2 mps 756 mmHg 74%
    18:00 +30°C° 0 mm 2 mps 756 mmHg 77%
    19:00 +28°C° 0 mm 2 mps 757 mmHg 80%
    20:00 +27°C° 0 mm 2 mps 757 mmHg 83%
    21:00 +27°C° 0 mm 1 mps 757 mmHg 85%
    22:00 +26°C° 0 mm 1 mps 758 mmHg 87%
    23:00 +26°C° 0 mm 1 mps 758 mmHg 89%

    Tomorrow, 23 July, Tuesday

    Time Temperature Precipitation Wind Pressure Humidity
    00:00 +26°C° 0 mm 1 mps 758 mmHg 90%
    01:00 +26°C° 0 mm 1 mps 757 mmHg 92%
    02:00 +26°C° 0 mm 1 mps 757 mmHg 93%
    03:00 +26°C° 0 mm 1 mps 757 mmHg 93%
    04:00 +26°C° 0 mm 1 mps 757 mmHg 93%
    05:00 +23°C° 0 mm 0 mps 757 mmHg 93%
    06:00 +27°C° 0 mm 1 mps 757 mmHg 87%
    07:00 +28°C° 0 mm 1 mps 757 mmHg 81%
    08:00 +29°C° 0 mm 1 mps 757 mmHg 75%
    09:00 +31°C° 0 mm 1 mps 757 mmHg 69%
    10:00 +32°C° 0 mm 1 mps 757 mmHg 63%
    11:00 +34°C° 0 mm 1 mps 757 mmHg 57%
    12:00 +36°C° 0 mm 2 mps 756 mmHg 54%
    13:00 +36°C° 0 mm 2 mps 756 mmHg 52%
    14:00 +37°C° 0 mm 2 mps 755 mmHg 49%
    15:00 +36°C° 0.3 mm 3 mps 755 mmHg 56%
    16:00 +34°C° 0.3 mm 3 mps 755 mmHg 63%
    17:00 +33°C° 0.3 mm 4 mps 755 mmHg 70%
    18:00 +30°C° 0.6 mm 3 mps 755 mmHg 76%
    19:00 +29°C° 0.6 mm 3 mps 756 mmHg 83%
    20:00 +27°C° 0.6 mm 2 mps 757 mmHg 89%
    21:00 +27°C° 0.1 mm 2 mps 758 mmHg 89%
    22:00 +27°C° 0.1 mm 2 mps 758 mmHg 90%
    23:00 +26°C° 0.1 mm 2 mps 758 mmHg 91%

    Day after tomorrow, 24 July, Wednesday

    Time Temperature Precipitation Wind Pressure Humidity
    00:00 +26°C° 0 mm 2 mps 758 mmHg 92%
    01:00 +26°C° 0 mm 1 mps 757 mmHg 92%
    02:00 +26°C° 0 mm 1 mps 757 mmHg 93%
    03:00 +26°C° 0 mm 1 mps 757 mmHg 94%
    04:00 +26°C° 0 mm 1 mps 757 mmHg 95%
    05:00 +26°C° 0 mm 1 mps 758 mmHg 95%
    06:00 +26°C° 0.1 mm 1 mps 758 mmHg 92%
    07:00 +27°C° 0.1 mm 1 mps 759 mmHg 88%
    08:00 +28°C° 0.1 mm 1 mps 759 mmHg 85%
    09:00 +29°C° 1.8 mm 1 mps 759 mmHg 82%
    10:00 +30°C° 1.8 mm 1 mps 759 mmHg 78%
    11:00 +31°C° 1.8 mm 1 mps 759 mmHg 75%
    12:00 +31°C° 1 mm 1 mps 758 mmHg 76%
    13:00 +30°C° 1 mm 2 mps 758 mmHg 77%
    14:00 +30°C° 1 mm 2 mps 757 mmHg 78%
    15:00 +29°C° 1.4 mm 2 mps 757 mmHg 82%
    16:00 +28°C° 1.4 mm 2 mps 757 mmHg 85%
    17:00 +28°C° 1.4 mm 2 mps 756 mmHg 89%
    18:00 +27°C° 0.4 mm 2 mps 757 mmHg 91%
    19:00 +27°C° 0.4 mm 2 mps 758 mmHg 92%
    20:00 +26°C° 0.4 mm 2 mps 758 mmHg 94%
    21:00 +26°C° 0 mm 2 mps 759 mmHg 94%
    22:00 +26°C° 0 mm 2 mps 759 mmHg 94%
    23:00 +26°C° 0 mm 2 mps 759 mmHg 95%

    25 July, Thursday

    Time Temperature Precipitation Wind Pressure Humidity
    00:00 +26°C° 0.2 mm 1 mps 759 mmHg 95%
    01:00 +26°C° 0.2 mm 1 mps 759 mmHg 95%
    02:00 +26°C° 0.2 mm 1 mps 758 mmHg 95%
    03:00 +25°C° 1.2 mm 1 mps 758 mmHg 96%
    04:00 +25°C° 1.2 mm 1 mps 758 mmHg 96%
    05:00 +25°C° 1.2 mm 1 mps 758 mmHg 96%
    06:00 +26°C° 1.4 mm 1 mps 759 mmHg 93%
    07:00 +27°C° 1.4 mm 1 mps 759 mmHg 90%
    08:00 +28°C° 1.4 mm 1 mps 759 mmHg 87%
    09:00 +29°C° 2.2 mm 1 mps 759 mmHg 85%
    10:00 +29°C° 2.2 mm 2 mps 759 mmHg 82%
    11:00 +30°C° 2.2 mm 2 mps 759 mmHg 80%
    12:00 +30°C° 3 mm 2 mps 759 mmHg 81%
    13:00 +30°C° 3 mm 2 mps 758 mmHg 81%
    14:00 +30°C° 3 mm 2 mps 758 mmHg 82%
    15:00 +29°C° 2.6 mm 2 mps 758 mmHg 86%
    16:00 +27°C° 2.6 mm 2 mps 758 mmHg 90%
    17:00 +26°C° 2.6 mm 2 mps 758 mmHg 94%
    18:00 +26°C° 0.7 mm 2 mps 758 mmHg 95%
    19:00 +26°C° 0.7 mm 2 mps 759 mmHg 96%
    20:00 +26°C° 0.7 mm 3 mps 759 mmHg 96%
    21:00 +26°C° 0.2 mm 2 mps 759 mmHg 97%
    22:00 +25°C° 0.2 mm 2 mps 760 mmHg 97%
    23:00 +25°C° 0.2 mm 1 mps 760 mmHg 97%

    26 July, Friday

    Time Temperature Precipitation Wind Pressure Humidity
    00:00 +25°C° 0 mm 1 mps 759 mmHg 98%
    01:00 +25°C° 0 mm 1 mps 759 mmHg 98%
    02:00 +25°C° 0 mm 1 mps 759 mmHg 98%
    03:00 +25°C° 0 mm 1 mps 759 mmHg 98%
    04:00 +25°C° 0 mm 1 mps 759 mmHg 98%
    05:00 +23°C° 0 mm 0 mps 759 mmHg 97%
    06:00 +24°C° 0 mm 0 mps 759 mmHg 95%
    07:00 +26°C° 0 mm 1 mps 760 mmHg 93%
    08:00 +27°C° 0 mm 1 mps 760 mmHg 91%
    09:00 +29°C° 0 mm 1 mps 760 mmHg 83%
    10:00 +30°C° 0 mm 1 mps 760 mmHg 76%
    11:00 +32°C° 0 mm 1 mps 760 mmHg 69%
    12:00 +33°C° 0.1 mm 1 mps 759 mmHg 67%
    13:00 +33°C° 0.1 mm 1 mps 758 mmHg 64%
    14:00 +34°C° 0.1 mm 1 mps 757 mmHg 62%
    15:00 +34°C° 1 mm 2 mps 757 mmHg 68%
    16:00 +32°C° 1 mm 2 mps 757 mmHg 74%
    17:00 +31°C° 1 mm 2 mps 757 mmHg 80%
    18:00 +29°C° 0.3 mm 2 mps 757 mmHg 84%
    19:00 +28°C° 0.3 mm 2 mps 758 mmHg 89%
    20:00 +27°C° 0.3 mm 2 mps 758 mmHg 93%
    21:00 +27°C° 0 mm 2 mps 759 mmHg 93%
    22:00 +26°C° 0 mm 2 mps 759 mmHg 94%
    23:00 +26°C° 0 mm 2 mps 759 mmHg 94%

    27 July, Saturday

    Time Temperature Precipitation Wind Pressure Humidity
    00:00 +26°C° 0.7 mm 2 mps 759 mmHg 95%
    01:00 +26°C° 0.7 mm 1 mps 759 mmHg 96%
    02:00 +25°C° 0.7 mm 1 mps 759 mmHg 97%
    03:00 +25°C° 0.9 mm 1 mps 758 mmHg 97%
    04:00 +25°C° 0.9 mm 1 mps 758 mmHg 96%
    05:00 +25°C° 0.9 mm 2 mps 758 mmHg 96%
    06:00 +26°C° 0 mm 2 mps 758 mmHg 94%
    07:00 +27°C° 0 mm 2 mps 759 mmHg 91%
    08:00 +27°C° 0 mm 2 mps 759 mmHg 88%
    09:00 +28°C° 0 mm 1 mps 759 mmHg 83%
    10:00 +29°C° 0 mm 1 mps 759 mmHg 78%
    11:00 +31°C° 0 mm 1 mps 759 mmHg 73%
    12:00 +32°C° 0.1 mm 1 mps 759 mmHg 68%
    13:00 +33°C° 0.1 mm 1 mps 758 mmHg 64%
    14:00 +34°C° 0.1 mm 1 mps 757 mmHg 59%
    15:00 +33°C° 0.3 mm 1 mps 757 mmHg 63%
    16:00 +33°C° 0.3 mm 1 mps 756 mmHg 67%
    17:00 +32°C° 0.3 mm 2 mps 756 mmHg 70%
    18:00 +31°C° 0 mm 2 mps 757 mmHg 76%
    19:00 +29°C° 0 mm 2 mps 757 mmHg 81%
    20:00 +28°C° 0 mm 2 mps 758 mmHg 86%
    21:00 +27°C° 0 mm 1 mps 758 mmHg 87%
    22:00 +27°C° 0 mm 1 mps 758 mmHg 88%
    23:00 +26°C° 0 mm 1 mps 758 mmHg 90%
    Show more